Lapse_Rate
7.3 6.8 6.5 7.4 7.2 7.1 7.2 7.0 6.3 5.9 5.7 6.3 6.3 5.9 5.9 6.7 7.0 7.9 9.3 9.0 8.9 9.1 7.8 7.7 7.3 7.5 7.3 6.9 6.8 6.5 6.7 6.9 6.9
7.3 6.4 6.4 6.8 6.8 7.2 7.2 7.2 6.7 6.4 6.1 6.1 5.7 5.2 5.2 6.9 7.2 8.0 8.8 9.1 8.5 8.9 7.0 6.3 6.8 6.7 7.1 6.7 6.8 6.8 6.6 6.4 6.4
7.8 7.0 6.8 6.7 7.1 7.3 7.4 7.2 6.9 6.4 6.3 5.7 5.5 5.3 5.9 7.0 7.4 7.8 9.1 9.1 8.7 8.9 7.5 6.8 7.0 7.3 7.1 6.8 6.9 6.8 6.6 6.6 6.4
8.0 7.6 7.1 6.7 7.0 7.5 7.3 7.1 7.2 6.8 6.3 5.9 5.9 5.4 5.5 6.9 7.4 8.2 8.2 8.1 9.1 8.8 7.8 8.0 7.7 7.4 6.9 6.7 6.6 6.4 6.3 6.2 6.6
8.1 8.0 7.2 7.2 7.6 7.7 7.6 7.3 7.8 7.3 6.3 5.9 6.3 5.7 6.2 7.4 7.6 8.3 8.6 7.9 8.6 8.9 8.3 8.2 8.0 7.7 6.6 6.6 6.4 6.1 6.2 6.3 6.6
7.9 7.9 8.0 7.7 7.9 8.1 7.5 7.5 7.3 6.6 6.1 5.7 5.8 6.1 7.1 7.3 7.4 8.0 8.1 8.7 8.3 8.2 8.1 8.5 9.0 8.0 7.1 6.6 6.3 6.3 6.0 6.3 6.6
7.0 8.5 8.5 8.2 8.0 8.6 8.1 6.8 6.9 6.7 7.0 6.2 5.7 6.1 6.8 7.1 7.6 8.4 8.5 8.5 8.5 8.1 7.9 8.3 8.6 8.3 7.4 6.9 6.6 6.2 6.0 6.0 6.2
6.4 7.8 8.1 8.0 7.8 8.0 7.6 7.3 7.0 6.9 7.1 6.6 6.6 6.7 6.8 7.5 8.1 8.3 7.5 8.3 8.6 8.5 8.4 8.3 8.3 8.0 7.5 7.8 7.2 6.2 5.9 5.8 6.0
5.5 6.1 7.5 7.0 7.1 7.1 7.4 7.1 6.7 6.6 6.7 6.9 7.0 7.0 7.4 8.3 9.0 8.7 8.3 8.3 8.5 8.2 8.3 8.2 8.4 8.4 7.8 7.8 7.4 6.8 6.4 6.1 6.5
4.8 5.4 6.5 6.9 6.4 6.9 6.8 7.1 6.7 6.8 6.5 6.5 7.0 6.9 7.3 8.1 7.8 8.3 8.0 8.5 8.9 8.8 9.0 8.2 8.6 8.7 8.3 8.0 7.7 7.4 6.5 6.4 6.3
4.2 4.8 5.4 6.1 6.3 6.1 6.6 7.0 6.7 6.3 6.7 6.6 6.7 6.7 7.1 7.9 7.8 8.4 8.1 8.1 7.1 8.2 8.7 9.1 8.8 8.4 8.4 8.2 7.9 7.4 7.2 7.0 6.5
3.8 4.2 4.8 5.5 5.3 5.6 5.8 6.0 6.1 6.2 6.2 6.6 6.7 7.2 8.0 8.6 8.4 7.9 7.9 8.2 7.8 8.3 7.9 8.3 9.0 8.4 8.4 8.0 8.0 8.0 7.6 6.8 6.8
3.9 4.0 4.6 4.6 4.9 5.5 6.2 6.4 6.4 6.3 6.8 6.6 7.0 7.5 7.8 8.9 9.1 8.8 8.2 7.8 7.1 7.8 8.2 7.8 8.5 8.8 8.3 8.3 8.2 8.0 6.9 7.2 6.9
4.4 4.2 3.8 3.9 4.3 4.7 5.7 5.9 6.6 6.3 6.1 6.3 6.5 6.6 7.8 8.5 8.4 8.9 8.9 8.5 7.7 7.4 7.8 7.4 7.4 7.9 8.7 8.7 8.6 7.9 6.5 7.4 7.3
3.9 3.7 3.2 3.2 4.1 4.4 5.3 5.9 5.2 6.1 6.3 6.0 5.8 5.9 6.5 6.7 8.4 8.5 8.0 7.8 7.7 7.8 7.6 7.0 7.1 7.8 8.2 9.0 8.1 7.7 8.2 7.0 6.2
4.0 3.8 3.1 2.8 3.9 3.7 4.6 5.0 5.4 4.9 5.1 6.2 6.1 6.1 5.9 6.3 6.4 6.5 7.4 7.4 6.9 6.5 5.8 5.9 6.0 6.4 6.4 6.9 7.2 8.4 8.1 7.8 6.5
3.8 3.8 3.5 3.5 3.5 3.8 4.0 4.1 3.9 4.0 4.6 6.3 6.4 7.0 7.1 6.3 5.6 5.5 6.1 6.5 6.0 6.0 5.7 5.5 5.2 5.2 5.5 5.8 6.2 6.5 6.7 7.4 8.2
3.9 3.9 3.8 3.6 4.0 3.8 3.5 3.7 4.8 3.7 3.7 4.5 6.1 5.7 7.0 5.2 4.7 5.1 5.3 5.3 5.1 5.2 5.0 5.0 5.0 5.0 5.1 5.1 5.4 5.7 6.2 6.5 8.5
4.0 3.5 3.7 3.5 3.5 3.6 3.9 4.9 4.6 5.7 4.2 4.0 3.8 4.3 5.5 6.4 6.5 4.8 4.9 4.7 3.6 4.0 3.9 4.8 4.6 4.5 4.7 4.8 5.2 5.4 5.6 6.1 7.3
3.8 3.9 4.3 3.7 4.0 3.9 5.1 4.9 4.8 5.5 4.2 4.5 4.1 4.5 3.9 4.7 6.0 7.1 6.0 3.9 5.3 5.0 4.2 3.6 3.7 4.2 4.2 4.5 5.0 5.4 5.5 5.7 6.6
Wind_Speed
20 21 20 18 16 17 18 20 21 20 20 22 24 23 20 22 22 20 17 17 18 18 15 15 16 16 15 14 19 18 18 18 19
23 21 18 15 14 15 18 21 21 21 21 23 24 23 20 21 19 19 17 17 18 16 16 19 15 15 21 21 18 17 18 18 18
23 19 18 15 19 22 23 24 24 24 23 25 23 20 20 20 20 18 17 15 16 15 16 22 23 24 21 21 20 19 17 17 19
23 20 18 16 19 23 23 23 24 25 23 23 21 21 20 19 17 17 16 17 16 17 16 20 20 23 21 20 20 18 17 19 24
21 21 19 19 21 24 21 21 24 22 21 20 21 21 18 20 17 15 16 17 16 16 17 18 18 19 21 21 20 19 19 21 24
17 18 19 19 19 20 19 22 22 21 20 18 18 16 16 16 15 15 18 18 17 16 17 16 16 15 19 20 21 21 20 19 23
15 16 18 17 19 18 17 19 21 16 13 14 15 13 14 13 12 15 16 16 16 17 16 16 14 12 16 19 20 22 19 19 22
12 11 12 12 16 13 13 14 12 13 12 12 11 11 11 11 13 15 14 14 16 14 14 15 15 14 16 17 20 20 19 19 19
12 9 9 10 10 12 11 10 11 12 12 12 12 11 11 11 11 13 13 15 15 15 14 13 14 12 15 17 17 18 19 20 17
11 10 8 10 11 13 11 11 10 11 11 10 11 11 11 11 10 12 12 11 10 12 13 14 13 15 11 13 17 17 17 18 19
12 10 10 11 10 10 11 10 9 9 10 10 10 10 10 11 9 9 9 11 14 13 12 12 13 13 13 12 13 15 16 16 17
13 11 9 9 10 12 11 10 9 9 8 9 9 9 9 11 9 8 8 9 12 13 11 12 12 10 11 11 11 12 13 17 16
13 11 10 10 12 12 11 9 5 5 5 5 7 7 7 12 8 6 7 8 8 11 13 12 10 8 10 11 11 10 10 12 14
14 12 11 12 12 12 11 5 5 5 5 5 4 3 5 11 10 5 6 6 7 6 10 9 10 9 9 9 8 9 8 9 11
12 11 11 12 11 10 9 6 4 4 6 5 3 2 2 1 6 8 7 6 4 3 4 5 5 8 7 6 6 5 7 7 7
14 11 12 10 6 6 9 5 5 4 4 5 2 1 1 1 1 1 3 6 6 5 3 2 1 2 5 6 5 5 7 6 7
14 13 11 12 6 7 7 5 3 2 6 3 2 2 2 2 1 1 2 3 3 5 5 4 3 1 0 1 3 3 3 3 3
17 16 14 13 11 7 7 7 7 3 4 2 3 2 3 1 1 3 3 4 4 5 5 5 5 5 3 3 2 0 1 2 2
16 16 16 15 12 7 9 12 5 5 6 2 1 2 2 2 1 2 3 4 4 6 6 7 7 6 6 7 6 5 3 3 3
14 14 15 13 12 11 12 9 8 7 4 4 3 1 1 1 1 2 1 2 5 8 8 9 8 9 9 8 9 10 8 6 5
Wind_Direction
114 112 108 111 113 117 114 109 104 94 92 102 102 92 84 86 82 79 72 73 77 82 84 83 83 79 69 71 75 70 70 66 69
118 116 112 113 119 123 119 115 102 95 97 97 83 86 86 87 83 79 73 77 71 72 61 54 90 75 65 61 79 78 71 71 69
123 121 111 104 117 117 117 105 100 95 92 91 86 81 88 87 84 83 80 70 75 77 60 52 60 58 58 57 62 64 71 75 73
124 123 108 97 110 109 107 103 98 95 95 93 84 87 85 85 85 83 75 74 71 75 62 56 55 61 57 53 55 56 67 81 78
123 123 110 101 101 104 102 103 99 99 98 97 99 95 84 84 81 79 89 76 74 72 63 65 52 51 47 55 55 54 65 77 75
115 123 119 109 106 105 104 100 101 100 97 98 99 88 87 89 82 78 79 77 76 66 61 71 57 49 43 56 56 57 59 76 77
123 124 125 119 116 107 100 101 112 101 99 93 85 87 94 89 84 87 86 79 75 74 68 67 64 62 44 51 56 55 56 73 79
123 117 116 122 117 114 106 103 103 104 104 94 88 88 86 88 89 84 91 90 90 80 76 68 66 58 45 54 56 54 49 64 77
130 130 126 119 130 114 111 108 108 104 99 100 95 89 91 92 86 83 81 81 79 75 76 80 79 64 49 49 51 57 54 52 66
136 133 127 126 132 125 116 114 119 116 107 98 94 90 83 78 73 89 83 79 78 95 85 73 75 72 50 49 45 45 52 53 54
144 140 134 132 137 132 130 122 125 122 123 110 102 97 93 80 78 88 75 81 86 80 75 68 66 62 66 62 47 47 43 47 52
151 148 144 140 130 134 124 112 112 127 124 120 119 118 106 89 77 69 67 75 65 73 63 79 71 59 69 61 59 43 38 39 41
158 157 156 148 138 144 134 127 119 128 143 141 142 135 120 104 85 76 69 74 69 69 69 58 50 67 79 70 68 61 42 38 42
164 165 163 155 142 149 143 129 132 142 140 138 134 109 145 129 131 115 96 81 79 81 67 57 54 70 54 50 55 66 56 42 40
156 158 161 165 156 152 153 142 114 140 141 127 111 55 155 75 154 156 155 141 135 105 90 56 46 50 60 56 42 82 64 54 44
158 158 159 166 161 151 150 132 131 124 143 129 124 98 44 42 131 200 189 170 167 158 134 96 90 53 53 70 52 46 73 58 47
165 165 171 172 158 161 163 146 129 112 178 138 124 169 194 192 194 247 235 232 202 193 181 177 185 184 77 61 47 38 53 42 90
176 176 173 172 175 181 177 169 158 141 189 219 141 148 213 205 192 211 219 223 228 232 227 215 209 204 209 211 204 190 338 313 6
183 184 176 175 178 177 189 186 175 156 169 198 166 70 125 171 175 217 240 231 234 234 235 232 229 232 226 221 220 213 223 277 304
188 185 185 178 185 190 191 187 194 187 158 167 155 143 111 120 168 255 218 246 238 236 233 234 237 233 230 235 232 222 221 232 266